This demonstration page uses our WeatherBlox Daily Observations layout. Learn more.

Left ArrowRight Arrow

Hourly Observations for March 29, 2021

Temp ( °F °C ) Dew Point ( °F °C ) Humidity (%) Winds ( mph kmh ) Pressure ( in mb ) Visibility ( mi km ) Precip ( " mm )
12:54 am 00:54 Clear 54 12.2 36 2.2 51 51 S 21 33 29.92 1013 10 16 N/A
1:54 am 01:54 Clear 54 12.2 35 1.7 49 49 SSW 21 33 29.89 1012 10 16 N/A
2:54 am 02:54 Clear 53 11.7 36 2.2 52 52 SSW 20 31 29.87 1012 10 16 N/A
3:54 am 03:54 Clear 51 10.6 35 1.7 54 54 SSW 16 26 29.85 1011 10 16 N/A
4:54 am 04:54 Clear 50 10 35 1.7 57 57 SSW 13 20 29.82 1010 10 16 N/A
5:54 am 05:54 Clear 50 10 34 1.1 54 54 SSW 16 26 29.80 1009 10 16 N/A
6:54 am 06:54 Clear 50 10 34 1.1 54 54 S 13 20 29.77 1008 10 16 N/A
7:54 am 07:54 Sunny 51 10.6 34 1.1 52 52 SSW 14 22 29.77 1008 10 16 N/A
8:54 am 08:54 Sunny 55 12.8 35 1.7 47 47 SSW 21 33 29.74 1007 10 16 N/A
9:54 am 09:54 Sunny 59 15 36 2.2 42 42 SSW 23 37 29.70 1006 10 16 N/A
10:54 am 10:54 Sunny 64 17.8 37 2.8 37 37 SSW 21 33 29.67 1005 10 16 N/A
11:54 am 11:54 Sunny 67 19.4 38 3.3 35 35 SSW 18 30 29.63 1003 10 16 N/A
12:54 pm 12:54 Sunny 70 21.1 39 3.9 32 32 S 23 37 29.59 1002 10 16 N/A
1:54 pm 13:54 Sunny 73 22.8 39 3.9 29 29 SSW 23 37 29.54 1000 10 16 N/A
2:54 pm 14:54 Sunny 76 24.4 39 3.9 26 26 S 26 43 29.49 999 10 16 N/A
3:54 pm 15:54 Sunny 78 25.6 39 3.9 25 25 SSW 28 44 29.47 998 10 16 N/A
4:54 pm 16:54 Sunny 79 26.1 38 3.3 23 23 S 23 37 29.42 996 10 16 N/A
5:54 pm 17:54 Sunny 78 25.6 37 2.8 23 23 S 26 43 29.43 997 10 16 N/A
6:54 pm 18:54 Sunny 75 23.9 39 3.9 27 27 S 23 37 29.41 996 10 16 N/A
7:54 pm 19:54 Clear 71 21.7 40 4.4 32 32 S 20 31 29.42 996 10 16 N/A
8:54 pm 20:54 Clear 70 21.1 38 3.3 31 31 S 18 30 29.42 996 10 16 N/A
9:54 pm 21:54 Clear 68 20 37 2.8 32 32 S 16 26 29.44 997 10 16 N/A
10:54 pm 22:54 Clear 68 20 38 3.3 33 33 NNW 29 46 29.54 1000 10 16 N/A
11:01 pm 23:01 Clear 63 17.2 36 2.2 37 37 NNW 28 44 29.54 1000 10 16 N/A

Powered by AerisWeather